User: anonymous   Login
Location: Mentone
(34.5413°N, 85.5351°W)
Time: 12:45:58
(UTC-06:00)
Language:

ADEOS Rocket - Orbit

View from above orbital plane
View from above orbital plane
View from above satellite
View from above satellite

Ground track
Ground track

The orbit data is extracted from the following two-line orbital elements,

1 24279U 96046C   15061.57798806  .00000044  00000-0  10297-3 0  9992
2 24279 098.7114 101.6503 0299204 266.0103 263.1695 13.47015716911475
Epoch (UTC): 02 March 2015 13:52:18
Eccentricity: 0.0299204
inclination: 98.7114°
perigee height: 860 km
apogee height: 1306 km
right ascension of ascending node: 101.6503°
argument of perigee: 266.0103°
revolutions per day: 13.47015716
mean anomaly at epoch: 263.1695°
orbit number at epoch: 91147

The dashed part of the orbit path shows where the satellite is in the earth's shadow,  

DLR